Volver al catálogo

COSMOS 1816

ActivoNavegaciónPO
NORAD 17359·PAYLOAD·🇷🇺 Russia

Lanzado Jan 29, 1987 desde Plesetsk Cosmodrome

Loading…

Próximos Pases (próximas 24 horas)

TLE

ActualizadoSource: Space-Track

Época: Sep 14, 2026, 22:31 UTC

1 17359U 87009A   26257.93854817  .00000077  00000-0  64821-4 0  9995
2 17359  82.9255 317.8270 0031524 321.1440 221.0708 13.74646580987486

Sigue COSMOS 1816 en tiempo real con AllMySat

Download on the App Store